FJL734 OPIS-OPLA

Flight info

Callsign FJL734
Flight time 0h 42m
Altitude 27000
Route INDEK2C INDEK J121 AKBER AKBER1B
Aircraft A320/M-SDE3FGHIRWY/LB1

Departure

Time 2026-05-06 08:20
Airport Islamabad International Airport (OPIS)

Arrival

Time 2026-05-06 09:03
Airport Allama Iqbal International Airport (OPLA)
Time Latitude Longitude Altitude Speed Heading
2026-05-06 08:06 33.55668 72.83162 1770 ft 0 kts 100°
2026-05-06 08:14 33.55669 72.83158 1773 ft 2 kts 100°
2026-05-06 08:14 33.55677 72.83104 1771 ft 6 kts 103°
2026-05-06 08:14 33.55681 72.83089 1770 ft 0 kts 112°
2026-05-06 08:14 33.55696 72.83079 1773 ft 8 kts 187°
2026-05-06 08:15 33.55731 72.83086 1772 ft 0 kts 196°
2026-05-06 08:15 33.55724 72.83084 1770 ft 1 kts 194°
2026-05-06 08:15 33.55705 72.83080 1770 ft 10 kts 190°
2026-05-06 08:15 33.55631 72.83019 1771 ft 14 kts 230°
2026-05-06 08:16 33.55559 72.82907 1770 ft 18 kts 235°
2026-05-06 08:16 33.55487 72.82780 1770 ft 19 kts 235°
2026-05-06 08:16 33.55462 72.82663 1770 ft 13 kts 279°
2026-05-06 08:16 33.55469 72.82567 1773 ft 10 kts 252°
2026-05-06 08:17 33.55415 72.82526 1771 ft 10 kts 193°
2026-05-06 08:17 33.55342 72.82510 1771 ft 12 kts 189°
2026-05-06 08:17 33.55256 72.82491 1771 ft 14 kts 191°
2026-05-06 08:17 33.55223 72.82402 1768 ft 14 kts 277°
2026-05-06 08:18 33.55244 72.82268 1771 ft 20 kts 280°
2026-05-06 08:18 33.55272 72.82082 1771 ft 25 kts 280°
2026-05-06 08:18 33.55307 72.81851 1769 ft 31 kts 281°
2026-05-06 08:18 33.55323 72.81642 1770 ft 17 kts 228°
2026-05-06 08:19 33.55193 72.81599 1750 ft 22 kts 190°
2026-05-06 08:19 33.55143 72.81651 1755 ft 11 kts 103°
2026-05-06 08:19 33.55099 72.81929 1760 ft 74 kts 101°
2026-05-06 08:19 33.54955 72.82863 1762 ft 150 kts 101°
2026-05-06 08:20 33.54744 72.84284 2122 ft 179 kts 100°
2026-05-06 08:20 33.54546 72.85738 2921 ft 193 kts 99°
2026-05-06 08:20 33.54229 72.87619 2810 ft 260 kts 102°
2026-05-06 08:20 33.53838 72.89708 4110 ft 247 kts 102°
2026-05-06 08:21 33.53282 72.91657 5276 ft 259 kts 125°
2026-05-06 08:21 33.51866 72.93094 6038 ft 278 kts 160°
2026-05-06 08:21 33.49945 72.93331 7084 ft 284 kts 192°
2026-05-06 08:21 33.48058 72.92636 8200 ft 290 kts 200°
2026-05-06 08:22 33.46046 72.92241 9267 ft 301 kts 175°
2026-05-06 08:22 33.44063 72.93048 9928 ft 306 kts 145°
2026-05-06 08:22 33.42307 72.94578 10333 ft 323 kts 143°
2026-05-06 08:22 33.40380 72.96162 10544 ft 347 kts 146°
2026-05-06 08:23 33.38277 72.97786 10730 ft 368 kts 147°
2026-05-06 08:23 33.36099 72.99406 11245 ft 376 kts 148°
2026-05-06 08:23 33.33855 73.01056 11886 ft 380 kts 147°
2026-05-06 08:23 33.31585 73.02727 12564 ft 384 kts 147°
2026-05-06 08:24 33.29292 73.04424 13235 ft 388 kts 147°
2026-05-06 08:24 33.26978 73.06149 13836 ft 394 kts 147°
2026-05-06 08:24 33.24642 73.07899 14397 ft 398 kts 147°
2026-05-06 08:24 33.22310 73.09652 14972 ft 402 kts 147°
2026-05-06 08:25 33.19934 73.11438 15547 ft 406 kts 147°
2026-05-06 08:25 33.17524 73.13249 16108 ft 410 kts 147°
2026-05-06 08:25 33.15104 73.15065 16665 ft 414 kts 147°
2026-05-06 08:25 33.12647 73.16902 17213 ft 418 kts 147°
2026-05-06 08:26 33.10171 73.18750 17746 ft 422 kts 147°
2026-05-06 08:26 33.07606 73.20498 18258 ft 427 kts 154°
2026-05-06 08:26 33.04813 73.21747 18687 ft 432 kts 164°
2026-05-06 08:26 33.01876 73.22428 19107 ft 437 kts 172°
2026-05-06 08:27 32.98834 73.22924 19555 ft 441 kts 172°
2026-05-06 08:27 32.95780 73.23424 20005 ft 444 kts 172°
2026-05-06 08:27 32.92694 73.23932 20459 ft 448 kts 172°
2026-05-06 08:27 32.89638 73.24439 20897 ft 451 kts 172°
2026-05-06 08:28 32.86479 73.24967 21344 ft 454 kts 172°
2026-05-06 08:28 32.83383 73.25484 21764 ft 458 kts 172°
2026-05-06 08:28 32.80215 73.26110 22168 ft 462 kts 167°
2026-05-06 08:28 32.77140 73.27268 22576 ft 465 kts 157°
2026-05-06 08:29 32.74244 73.28993 22980 ft 467 kts 147°
2026-05-06 08:29 32.71580 73.31240 23407 ft 469 kts 141°
2026-05-06 08:29 32.68985 73.33618 23772 ft 471 kts 141°
2026-05-06 08:29 32.66406 73.35968 24103 ft 474 kts 141°
2026-05-06 08:30 32.63774 73.38360 24432 ft 476 kts 141°
2026-05-06 08:30 32.61134 73.40755 24759 ft 479 kts 141°
2026-05-06 08:30 32.58476 73.43164 25090 ft 482 kts 141°
2026-05-06 08:30 32.55801 73.45587 25383 ft 485 kts 141°
2026-05-06 08:31 32.53137 73.47998 25668 ft 488 kts 141°
2026-05-06 08:31 32.50425 73.50453 25988 ft 491 kts 141°
2026-05-06 08:31 32.47700 73.52918 26290 ft 493 kts 141°
2026-05-06 08:31 32.44960 73.55395 26583 ft 496 kts 141°
2026-05-06 08:32 32.42215 73.57878 26805 ft 498 kts 141°
2026-05-06 08:32 32.39470 73.60358 26854 ft 501 kts 142°
2026-05-06 08:32 32.36687 73.62869 26855 ft 502 kts 141°
2026-05-06 08:32 32.33902 73.65384 26869 ft 502 kts 142°
2026-05-06 08:33 32.31132 73.67880 26851 ft 500 kts 142°
2026-05-06 08:33 32.28361 73.70372 26855 ft 499 kts 142°
2026-05-06 08:33 32.25635 73.72820 26854 ft 498 kts 142°
2026-05-06 08:33 32.22874 73.75298 26852 ft 498 kts 142°
2026-05-06 08:34 32.20108 73.77776 26856 ft 498 kts 142°
2026-05-06 08:34 32.14581 73.82730 26850 ft 498 kts 142°
2026-05-06 08:34 32.11820 73.85205 26849 ft 498 kts 142°
2026-05-06 08:35 32.09058 73.87679 26828 ft 499 kts 142°
2026-05-06 08:35 32.06285 73.90159 26825 ft 499 kts 142°
2026-05-06 08:35 32.03545 73.92604 26827 ft 500 kts 142°
2026-05-06 08:35 32.00766 73.95085 26821 ft 500 kts 142°
2026-05-06 08:36 31.97979 73.97575 26824 ft 501 kts 142°
2026-05-06 08:36 31.95201 74.00055 26824 ft 501 kts 142°
2026-05-06 08:36 31.92428 74.02537 26861 ft 500 kts 142°
2026-05-06 08:36 31.89677 74.05052 26864 ft 499 kts 141°
2026-05-06 08:37 31.86980 74.07562 26858 ft 499 kts 141°
2026-05-06 08:37 31.84068 74.09820 26846 ft 499 kts 153°
2026-05-06 08:37 31.80859 74.11370 26834 ft 498 kts 162°
2026-05-06 08:37 31.77562 74.12716 26830 ft 499 kts 162°
2026-05-06 08:38 31.74311 74.14017 26829 ft 499 kts 162°
2026-05-06 08:38 31.71023 74.15320 26829 ft 499 kts 162°
2026-05-06 08:38 31.67730 74.16626 26829 ft 499 kts 162°
2026-05-06 08:38 31.64437 74.17941 26830 ft 499 kts 162°
2026-05-06 08:39 31.61140 74.19261 26812 ft 500 kts 162°
2026-05-06 08:39 31.57832 74.20590 26813 ft 500 kts 162°
2026-05-06 08:39 31.54580 74.21894 26814 ft 500 kts 162°
2026-05-06 08:39 31.51271 74.23220 26815 ft 500 kts 162°
2026-05-06 08:40 31.47976 74.24539 26819 ft 500 kts 162°
2026-05-06 08:40 31.44678 74.25859 26816 ft 500 kts 162°
2026-05-06 08:40 31.41410 74.27167 26821 ft 501 kts 162°
2026-05-06 08:40 31.38111 74.28491 26826 ft 501 kts 161°
2026-05-06 08:41 31.34993 74.30300 26812 ft 502 kts 143°
2026-05-06 08:41 31.32526 74.33162 26817 ft 498 kts 123°
2026-05-06 08:41 31.31028 74.36723 26867 ft 477 kts 102°
2026-05-06 08:41 31.30655 74.40438 26835 ft 446 kts 80°
2026-05-06 08:42 31.31393 74.43797 26839 ft 411 kts 57°
2026-05-06 08:42 31.32396 74.45592 26836 ft 387 kts 41°
2026-05-06 08:42 31.35179 74.47683 26840 ft 341 kts
2026-05-06 08:42 31.37428 74.47735 26833 ft 312 kts 342°
2026-05-06 08:43 31.38804 74.47232 26834 ft 302 kts 339°
2026-05-06 08:43 31.41419 74.46192 26838 ft 297 kts 339°
2026-05-06 08:43 31.42716 74.45676 26838 ft 297 kts 339°
2026-05-06 08:43 31.44646 74.44907 26838 ft 297 kts 339°
2026-05-06 08:44 31.46609 74.44124 26389 ft 303 kts 339°
2026-05-06 08:44 31.48649 74.43307 25587 ft 314 kts 339°
2026-05-06 08:44 31.50733 74.42469 24797 ft 325 kts 339°
2026-05-06 08:44 31.52769 74.41304 24008 ft 333 kts 321°
2026-05-06 08:45 31.54249 74.39172 23205 ft 345 kts 303°
2026-05-06 08:45 31.55670 74.36870 22279 ft 357 kts 319°
2026-05-06 08:45 31.57882 74.35344 21384 ft 379 kts 342°
2026-05-06 08:45 31.60515 74.35131 20973 ft 388 kts
2026-05-06 08:46 31.63065 74.36277 20749 ft 398 kts 29°
2026-05-06 08:46 31.65058 74.38482 20142 ft 406 kts 52°
2026-05-06 08:46 31.66175 74.41533 19600 ft 411 kts 76°
2026-05-06 08:46 31.66186 74.44890 19046 ft 416 kts 99°
2026-05-06 08:47 31.65253 74.48123 18414 ft 419 kts 109°
2026-05-06 08:47 31.63932 74.51189 17754 ft 422 kts 124°
2026-05-06 08:47 31.61885 74.53639 17179 ft 421 kts 144°
2026-05-06 08:47 31.59344 74.55188 16646 ft 416 kts 163°
2026-05-06 08:48 31.56520 74.55737 16123 ft 409 kts 180°
2026-05-06 08:48 31.53682 74.55829 15577 ft 407 kts 178°
2026-05-06 08:48 31.50866 74.56121 15009 ft 400 kts 176°
2026-05-06 08:48 31.48108 74.56434 14101 ft 395 kts 176°
2026-05-06 08:49 31.45397 74.56744 13184 ft 389 kts 176°
2026-05-06 08:49 31.42724 74.57048 12238 ft 383 kts 176°
2026-05-06 08:49 31.40101 74.57346 11311 ft 376 kts 176°
2026-05-06 08:49 31.37533 74.57683 10541 ft 365 kts 171°
2026-05-06 08:50 31.35088 74.58335 9745 ft 358 kts 167°
2026-05-06 08:50 31.32683 74.59045 8835 ft 352 kts 167°
2026-05-06 08:50 31.30358 74.59731 7950 ft 346 kts 167°
2026-05-06 08:50 31.28040 74.60411 7082 ft 341 kts 167°
2026-05-06 08:51 31.25816 74.61061 6883 ft 316 kts 167°
2026-05-06 08:51 31.23770 74.61675 6728 ft 292 kts 163°
2026-05-06 08:51 31.22037 74.62785 6329 ft 282 kts 137°
2026-05-06 08:51 31.20940 74.64628 5768 ft 277 kts 109°
2026-05-06 08:52 31.20698 74.66828 5179 ft 272 kts 81°
2026-05-06 08:52 31.21368 74.68838 4717 ft 258 kts 49°
2026-05-06 08:52 31.22678 74.70041 4593 ft 234 kts 18°
2026-05-06 08:52 31.24206 74.70232 4434 ft 214 kts 345°
2026-05-06 08:53 31.25467 74.69432 4086 ft 208 kts 310°
2026-05-06 08:53 31.26076 74.67942 3690 ft 207 kts 280°
2026-05-06 08:53 31.26198 74.66271 3289 ft 208 kts 273°
2026-05-06 08:53 31.26223 74.64573 3009 ft 215 kts 272°
2026-05-06 08:54 31.26251 74.62673 2987 ft 250 kts 272°
2026-05-06 08:54 31.26288 74.60611 2981 ft 256 kts 272°
2026-05-06 08:54 31.26318 74.58530 2974 ft 257 kts 272°
2026-05-06 08:54 31.26339 74.56441 2983 ft 258 kts 272°
2026-05-06 08:55 31.26359 74.54341 2976 ft 258 kts 273°
2026-05-06 08:55 31.26383 74.52257 2980 ft 252 kts 271°
2026-05-06 08:55 31.26448 74.50288 2971 ft 233 kts 278°
2026-05-06 08:55 31.26735 74.48478 2976 ft 222 kts 287°
2026-05-06 08:56 31.27235 74.46783 2979 ft 220 kts 292°
2026-05-06 08:56 31.27790 74.45121 2972 ft 223 kts 295°
2026-05-06 08:56 31.28511 74.43528 2988 ft 217 kts 301°
2026-05-06 08:56 31.29269 74.42048 2975 ft 206 kts 302°
2026-05-06 08:57 31.30065 74.40704 2970 ft 199 kts 309°
2026-05-06 08:57 31.30957 74.39490 2973 ft 197 kts 311°
2026-05-06 08:57 31.31863 74.38302 2975 ft 195 kts 312°
2026-05-06 08:57 31.32808 74.37164 2971 ft 195 kts 325°
2026-05-06 08:58 31.34027 74.36719 2991 ft 176 kts 356°
2026-05-06 08:58 31.35195 74.36757 2982 ft 162 kts
2026-05-06 08:58 31.36282 74.36855 2970 ft 154 kts
2026-05-06 08:58 31.37331 74.36980 2998 ft 147 kts
2026-05-06 08:59 31.38322 74.37125 2771 ft 141 kts
2026-05-06 08:59 31.39298 74.37305 2439 ft 143 kts
2026-05-06 08:59 31.40274 74.37535 2160 ft 142 kts 13°
2026-05-06 08:59 31.41217 74.37886 1862 ft 143 kts 17°
2026-05-06 09:00 31.42149 74.38258 1567 ft 142 kts 17°
2026-05-06 09:00 31.43078 74.38630 1397 ft 141 kts 18°
2026-05-06 09:00 31.44015 74.39019 1386 ft 143 kts 19°
2026-05-06 09:00 31.44937 74.39433 1321 ft 145 kts 20°
2026-05-06 09:01 31.45856 74.39922 1261 ft 145 kts 27°
2026-05-06 09:01 31.46767 74.40460 1193 ft 147 kts 16°
2026-05-06 09:01 31.47746 74.40594 1202 ft 143 kts 358°
2026-05-06 09:01 31.48750 74.40521 1080 ft 146 kts 355°
2026-05-06 09:02 31.49757 74.40439 868 ft 144 kts 355°
2026-05-06 09:02 31.50758 74.40422 750 ft 143 kts 359°
2026-05-06 09:02 31.51731 74.40475 727 ft 136 kts 353°
2026-05-06 09:02 31.52571 74.40464 723 ft 104 kts
2026-05-06 09:03 31.52978 74.40480 722 ft 8 kts 25°
2026-05-06 09:03 31.53015 74.40524 721 ft 7 kts 36°
2026-05-06 09:03 31.53053 74.40550 722 ft 5 kts 28°
2026-05-06 09:03 31.53098 74.40582 722 ft 14 kts 33°
2026-05-06 09:04 31.53149 74.40645 724 ft 9 kts 62°
2026-05-06 09:04 31.53116 74.40684 722 ft 7 kts 162°
2026-05-06 09:04 31.53071 74.40687 722 ft 6 kts 178°
2026-05-06 09:04 31.53033 74.40689 724 ft 5 kts 178°
2026-05-06 09:05 31.52982 74.40684 723 ft 14 kts 187°
2026-05-06 09:05 31.52840 74.40676 724 ft 22 kts 183°
2026-05-06 09:05 31.52655 74.40680 723 ft 26 kts 176°
2026-05-06 09:05 31.52534 74.40687 722 ft 17 kts 178°
2026-05-06 09:06 31.52437 74.40693 724 ft 9 kts 168°
2026-05-06 09:06 31.52408 74.40742 722 ft 7 kts 96°
2026-05-06 09:06 31.52403 74.40796 723 ft 6 kts 96°
2026-05-06 09:06 31.52388 74.40835 722 ft 5 kts 120°
2026-05-06 09:07 31.52372 74.40863 722 ft 4 kts 120°
2026-05-06 09:07 31.52367 74.40885 722 ft 2 kts 91°
2026-05-06 09:07 31.52368 74.40901 722 ft 2 kts 89°
2026-05-06 09:07 31.52369 74.40914 722 ft 3 kts 80°
2026-05-06 09:08 31.52373 74.40940 722 ft 1 kts 82°
2026-05-06 09:08 31.52374 74.40952 722 ft 0 kts 88°